Location: Bishausen
(51.6334°N, 9.9631°E)
Time: 11:11:09
(UTC+00:00)

H-2A R/B - Pass Details

Date: 23 May 2024
Orbit: 567 x 637 km, 98.4° (Epoch: 24 June)

Event Time Altitude Azimuth Distance (km) Brightness Sun altitude
Rises 00:30:48 0° 7° (N) 2,955 7.2 -15.9°
Reaches altitude 10° 00:33:17 10° 355° (N) 2,041 5.8 -15.8°
Maximum altitude 00:36:59 27° 299° (WNW) 1,246 3.7 -15.6°
Enters shadow 00:39:50 14° 249° (WSW) 1,750 4.0 -15.5°
